Flag for USA Past Weather in Kykotsmovi Village, Hopi, Arizona, USA — Yesterday and Last 2 Weeks

Now
82 °F

Scattered clouds.


Feels Like: 82 °F
Forecast: 62 / 87 °F
Wind: 16 mph from Southeast

Location: Winslow Municipal Airport

Current Time: Jul 22, 2017 at 7:57:08 pm

Latest Report: Jul 22, 2017 at 6:56 pm


Visibility: 10 mi

Pressure: 29.85 "Hg (24.53 "Hg at 1727m altitude)

Humidity: 43%

Dew Point: 57 °F

Location of Kykotsmovi Village, HopiLocation

Past Weather in Kykotsmovi Village, Hopi — Graph

°F

Kykotsmovi Village, Hopi Temperature Yesterday

Maximum temperature yesterday: 90 °F (at 12:56 pm)
Minimum temperature yesterday: 68 °F (at 2:56 am)
Average temperature yesterday: 78 °F

High & Low Weather Summary for the Past Weeks

 TemperatureHumidityPressure
High101 °F (Jul 15, 2:56 pm)94% (Jul 19, 3:56 am)30.19 "Hg (Jul 19, 3:56 am)
Low56 °F (Jul 12, 4:56 am)10% (Jul 14, 2:56 pm)29.74 "Hg (Jul 17, 3:56 pm)
Average79 °F48%29.93 "Hg
* Reported Jul 7 5:56 pm — Jul 22 5:56 pm, Kykotsmovi Village, Hopi. Weather by CustomWeather, © 2017

Note: Actual official high and low records may vary slightly from our data, if they occured in-between our weather recording intervals... More about our weather records

Advertising

Kykotsmovi Village, Hopi Weather History for the Previous 24 Hours

Scroll right to see more
 ConditionsComfort  
Time TempWeatherWind HumidityBarometerVisibility
5:56 pm
Sat, Jul 22
90 °FSunny.No wind26%29.81 "Hg10 mi
4:56 pm91 °FSunny.9 mph26%29.80 "Hg10 mi
3:56 pm91 °FSunny.10 mph26%29.79 "Hg10 mi
2:56 pm92 °FSunny.10 mph27%29.83 "Hg10 mi
1:56 pm90 °FScattered clouds.13 mph31%29.84 "Hg10 mi
12:56 pm89 °FSunny.8 mph29%29.88 "Hg10 mi
11:56 am87 °FSunny.12 mph33%29.91 "Hg10 mi
10:56 am80 °FSunny.7 mph47%29.96 "Hg10 mi
9:56 am78 °FScattered clouds.8 mph54%29.96 "Hg10 mi
8:56 am75 °FPartly sunny.8 mph60%29.96 "Hg10 mi
7:56 am76 °FSunny.8 mph60%29.95 "Hg10 mi
6:56 am71 °FScattered clouds.7 mph73%29.94 "Hg10 mi
5:56 am67 °FPartly sunny.8 mph87%29.94 "Hg10 mi
4:56 am67 °FClear.7 mph90%29.90 "Hg10 mi
3:56 am70 °FPassing clouds.3 mph79%29.88 "Hg10 mi
2:56 am69 °FLight rain. Overcast.12 mph81%29.90 "Hg9 mi
1:56 am73 °FPassing clouds.15 mph59%29.88 "Hg10 mi
12:56 am71 °FPassing clouds.6 mph63%29.87 "Hg10 mi
11:56 pm
Fri, Jul 21
71 °FClear.7 mph66%29.89 "Hg10 mi
10:56 pm73 °FPassing clouds.6 mph64%29.89 "Hg10 mi
9:56 pm74 °FPassing clouds.6 mph57%29.90 "Hg10 mi
8:56 pm75 °FPassing clouds.6 mph55%29.90 "Hg10 mi
7:56 pm77 °FClear.6 mph52%29.87 "Hg10 mi
Weather by CustomWeather, © 2017

See weather overviewHow to use our weather pages